Location: Les Salelles
(44.4192°N, 4.1044°E)
Time: 11:10:49
(UTC+00:00)

IRS-1C Rocket - Pass Details

Date: 20 January 2021
Orbit: 801 x 805 km, 99.0° (Epoch: 01 March)

Event Time Altitude Azimuth Distance (km) Brightness Sun altitude
Rises 17:47:28 0° 155° (SSE) 3,298 7.2 -12.6°
Reaches altitude 10° 17:49:48 10° 153° (SSE) 2,372 6.4 -13.0°
Maximum altitude 17:54:59 66° 72° (ENE) 874 4.0 -13.9°
Drops below altitude 10° 18:00:12 10° 351° (N) 2,387 6.5 -14.8°
Sets 18:02:33 0° 349° (N) 3,322 7.3 -15.2°
